STARLINK-34643, 64923

Orbit data source: Space-Track

STARLINK-34643, 64923 is a payload satellite owned by SpaceX/Seattle (US) in LEO that was launched on Sat, 26 Jul 2025 UTC via an FALCON 9 launch vehicle from the Air Force Eastern Test Range (AFETR). Payload-class satellites include a variety of spacecraft equipped with specific instruments for various scientific and technological missions. These include communications satellites like Starlink; space stations such as the ISS; scientific satellites like the Hubble; Earth observation satellites from companies like Planet Labs, Umbra, and HawkEye 360; GPS; miniature CubeSats for education and research; and military/defense satellites.

Loading next visibility...
Identifier
64923, 2025-157V
Orbit
LEO
Country
Flag of USUS
Related business
Manufacturer
SpaceX/Seattle
Mission
Operational Commercial Communications
Bus & Motor
STARLINK V2MO, Unknown motor
Mass
575 kg wet, ~530 kg dry
Launch date (UTC)
2025-07-26 (10 months ago)
Launch vehicle
FALCON 9
Launch site
Air Force Eastern Test Range (AFETR)
Object type
Payload
Rocket body
Debris
Shape & HBR
Box + 2 Pan, 17.7 m
Radar Cross Section
36.964 m², Large (>1 m²)

Expand to show TLE details & history
Last TLE update: 15 hours ago

TLE from 15 hours ago
0 STARLINK-34643
1 64923U 25157V   26145.26100396  .00022334  00000-0  76349-3 0  9995
2 64923  53.1594 350.2481 0000765  44.2626 315.8436 15.30217596 47840
Epoch: 2026-05-25T06:15Z
TLE epoch observation values (Epoch: 2026-05-25T06:15:50.742Z)
Latitude
0.00001°
Longitude
13.43534°
Altitude
475.686 km
Speed
7.629 km/s
True Right ascension
23h 20m 59s
True Declination
0° 00' 00"
Sunlit
Object was in daylight at epoch
Visualization orbit readout
Latitude
Unknown
Longitude
Unknown
Altitude
Unknown
Speed
Unknown
Apparent Right ascension
Unknown
Apparent Declination
Unknown
Sunlit
N/A
Visualization observer readout
Local Sidereal Time
06:59:05
Azimuth
Unknown
Elevation
Unknown
Doppler factor
Unknown
Orbital elements
Apogee altitude
475.943 km
Perigee altitude
474.895 km
Semi-major axis
6,853.556 km
Eccentricity
0.00008
Inclination
53.1594°
RAAN
350.2481°
Arg. of periapsis
44.2626°
True anomaly
315.83749°
Mean anomaly
315.8436°
Eccentric anomaly
315.84055°
Mean motion
3.82533 °/min
Orbital period
94.11 mins
BSTAR
0.00076349
Loading maneuver chart data...
Computing Atmospheric mass density...
Loading historical data...
Loading historical data...
Loading historical data...
Loading historical data...
Loading historical data...
Loading historical data...
Loading historical data...

Documentation

Showing up to 5 results
|